Total_Precipitation_Accumulation
0.33 0.17 0.31 0.30 0.26 0.26 0.35 0.44 0.55 0.54 0.55 0.51 0.37 0.28 0.26 0.24 0.25 0.23 0.21 0.22 0.31 0.36 0.34 0.29 0.29 0.29 0.28 0.28 0.32 0.36 0.41 0.46 0.49 0.52 0.57 0.55 0.47 0.49 0.65 0.79 0.81 0.93 0.65
0.30 0.21 0.34 0.38 0.30 0.24 0.30 0.39 0.50 0.54 0.63 0.52 0.37 0.31 0.29 0.25 0.23 0.21 0.15 0.16 0.21 0.25 0.24 0.26 0.30 0.30 0.33 0.35 0.42 0.50 0.48 0.43 0.53 0.60 0.68 0.67 0.59 0.57 0.56 0.71 0.80 0.91 0.66
0.30 0.24 0.29 0.41 0.37 0.31 0.34 0.42 0.51 0.55 0.66 0.55 0.45 0.37 0.29 0.22 0.21 0.20 0.15 0.17 0.22 0.17 0.14 0.21 0.33 0.37 0.41 0.45 0.52 0.59 0.55 0.48 0.57 0.71 0.96 1.31 0.83 0.58 0.59 0.62 0.70 0.64 0.65
0.31 0.28 0.35 0.45 0.41 0.41 0.46 0.49 0.54 0.61 0.71 0.63 0.50 0.38 0.28 0.24 0.23 0.22 0.31 0.37 0.27 0.14 0.12 0.19 0.33 0.36 0.36 0.43 0.53 0.53 0.50 0.50 0.59 0.69 1.04 1.40 1.13 0.67 0.66 0.71 0.78 0.66 0.64
0.34 0.35 0.50 0.59 0.51 0.50 0.57 0.66 0.67 0.72 0.75 0.67 0.52 0.34 0.30 0.30 0.33 0.39 0.47 0.39 0.22 0.13 0.12 0.17 0.28 0.32 0.28 0.29 0.42 0.46 0.47 0.54 0.66 0.75 1.08 1.32 1.33 0.89 0.73 0.74 0.74 0.67 0.70
0.39 0.34 0.46 0.59 0.54 0.55 0.64 0.77 0.76 0.78 0.83 0.77 0.59 0.42 0.37 0.38 0.36 0.39 0.46 0.39 0.22 0.12 0.11 0.15 0.24 0.28 0.27 0.25 0.33 0.41 0.46 0.56 0.62 0.80 1.07 1.19 1.29 0.86 0.65 0.72 0.80 0.79 0.76
0.44 0.37 0.41 0.54 0.52 0.56 0.71 0.83 0.85 0.87 0.89 0.84 0.64 0.53 0.50 0.46 0.41 0.44 0.44 0.38 0.23 0.15 0.13 0.15 0.20 0.24 0.23 0.25 0.28 0.33 0.40 0.40 0.47 0.74 0.97 1.13 1.04 0.77 0.64 0.78 0.91 0.83 0.81
0.56 0.47 0.42 0.54 0.59 0.59 0.68 0.75 0.82 0.88 0.91 0.86 0.67 0.60 0.58 0.54 0.49 0.47 0.46 0.40 0.29 0.24 0.20 0.18 0.19 0.20 0.19 0.22 0.25 0.29 0.34 0.31 0.37 0.58 0.77 0.98 0.96 0.81 0.67 0.76 0.93 0.92 0.93
0.65 0.60 0.53 0.54 0.59 0.69 0.77 0.82 0.84 0.88 0.91 0.93 0.79 0.70 0.67 0.58 0.49 0.46 0.44 0.39 0.34 0.31 0.25 0.21 0.19 0.17 0.16 0.20 0.22 0.29 0.30 0.26 0.34 0.49 0.54 0.79 0.85 0.79 0.64 0.67 0.80 0.87 0.96
0.63 0.63 0.58 0.60 0.68 0.68 0.74 0.92 0.99 1.01 1.04 1.07 0.93 0.80 0.74 0.60 0.50 0.48 0.40 0.38 0.40 0.42 0.39 0.32 0.26 0.22 0.19 0.22 0.22 0.24 0.27 0.24 0.34 0.39 0.48 0.53 0.72 0.68 0.55 0.53 0.58 0.66 0.73
0.58 0.58 0.58 0.61 0.73 0.78 0.76 0.86 1.12 1.16 1.19 1.16 1.02 0.92 0.80 0.61 0.51 0.50 0.43 0.53 0.52 0.51 0.53 0.50 0.43 0.33 0.24 0.22 0.21 0.20 0.19 0.24 0.36 0.39 0.42 0.46 0.64 0.64 0.56 0.48 0.49 0.50 0.56
0.61 0.56 0.55 0.54 0.60 0.69 0.74 0.85 1.01 1.00 1.01 1.00 1.14 1.05 0.92 0.87 0.74 0.45 0.49 0.64 0.72 0.72 0.65 0.57 0.54 0.37 0.22 0.14 0.16 0.16 0.12 0.20 0.31 0.34 0.33 0.48 0.63 0.57 0.51 0.44 0.41 0.44 0.49
0.57 0.52 0.47 0.44 0.44 0.50 0.63 0.80 0.90 1.01 1.11 1.07 1.03 1.03 1.00 0.88 0.69 0.56 0.58 0.58 0.61 0.62 0.51 0.50 0.44 0.30 0.22 0.18 0.16 0.14 0.13 0.19 0.28 0.34 0.36 0.58 0.73 0.66 0.50 0.42 0.36 0.36 0.41
0.50 0.52 0.46 0.36 0.36 0.38 0.46 0.55 0.66 0.80 0.92 0.95 0.81 0.77 0.85 0.87 0.75 0.61 0.61 0.58 0.57 0.57 0.59 0.59 0.53 0.41 0.33 0.27 0.26 0.26 0.28 0.27 0.32 0.38 0.43 0.59 0.84 0.73 0.55 0.43 0.36 0.36 0.39
0.47 0.53 0.49 0.41 0.39 0.37 0.41 0.43 0.44 0.63 0.80 0.90 0.92 0.79 0.77 0.78 0.76 0.69 0.58 0.59 0.53 0.55 0.58 0.58 0.56 0.51 0.48 0.40 0.40 0.39 0.38 0.36 0.36 0.36 0.45 0.64 0.96 1.07 0.81 0.60 0.42 0.36 0.39
0.44 0.53 0.53 0.51 0.51 0.46 0.40 0.40 0.42 0.51 0.63 0.71 0.86 0.88 0.82 0.74 0.71 0.73 0.67 0.68 0.68 0.65 0.64 0.61 0.57 0.61 0.57 0.46 0.40 0.37 0.36 0.31 0.30 0.36 0.46 0.61 0.72 0.86 1.00 0.90 0.68 0.55 0.45
0.42 0.44 0.45 0.46 0.54 0.54 0.52 0.50 0.50 0.59 0.61 0.68 0.74 0.76 0.83 0.74 0.67 0.73 0.75 0.74 0.75 0.75 0.74 0.74 0.71 0.73 0.64 0.55 0.49 0.38 0.31 0.28 0.28 0.35 0.37 0.45 0.41 0.41 0.64 0.84 0.84 0.74 0.63
0.36 0.37 0.42 0.41 0.48 0.56 0.61 0.64 0.69 0.71 0.75 0.82 0.79 0.76 0.76 0.72 0.69 0.78 0.79 0.81 0.86 0.78 0.75 0.80 0.84 0.84 0.77 0.69 0.62 0.47 0.32 0.31 0.32 0.33 0.33 0.36 0.36 0.28 0.33 0.41 0.45 0.54 0.67
0.34 0.35 0.39 0.43 0.49 0.55 0.60 0.71 0.81 0.89 0.97 1.11 1.08 1.03 0.97 0.85 0.86 0.93 0.96 0.98 1.00 1.01 0.93 0.81 0.82 0.86 0.90 0.84 0.68 0.54 0.40 0.37 0.39 0.35 0.41 0.40 0.37 0.31 0.31 0.24 0.25 0.26 0.33
0.34 0.35 0.40 0.47 0.55 0.65 0.80 1.02 1.26 1.33 1.51 1.73 1.68 1.53 1.34 1.17 1.13 1.22 1.19 1.16 1.20 1.27 1.26 1.03 1.05 1.00 0.92 0.91 0.79 0.66 0.57 0.52 0.52 0.46 0.43 0.43 0.49 0.41 0.35 0.26 0.21 0.16 0.19
0.24 0.28 0.35 0.40 0.50 0.62 0.84 1.17 1.60 1.82 1.95 1.96 1.99 1.89 1.68 1.46 1.46 1.60 1.55 1.54 1.52 1.48 1.42 1.35 1.43 1.37 1.12 1.00 1.06 0.98 0.83 0.64 0.61 0.54 0.45 0.44 0.52 0.56 0.52 0.39 0.29 0.21 0.16
0.15 0.17 0.27 0.33 0.42 0.56 0.85 1.17 1.52 1.88 1.96 1.98 1.99 1.95 1.81 1.69 1.70 1.73 1.89 1.96 1.93 1.99 1.95 1.75 1.83 1.84 1.53 1.29 1.38 1.54 1.27 1.02 0.68 0.58 0.55 0.49 0.52 0.58 0.65 0.54 0.42 0.33 0.26
0.11 0.12 0.18 0.24 0.39 0.67 1.01 1.33 1.53 1.82 1.95 2.01 1.96 1.97 2.00 1.95 1.84 1.86 1.96 2.09 2.10 2.15 2.20 2.25 2.17 2.22 2.01 1.65 1.51 1.64 1.43 1.26 1.04 0.66 0.58 0.62 0.64 0.67 0.67 0.68 0.60 0.48 0.42
0.09 0.11 0.14 0.20 0.40 0.74 1.08 1.34 1.59 1.94 2.05 2.03 2.06 2.04 2.06 2.08 2.03 2.09 2.11 2.19 2.20 2.19 2.26 2.36 2.30 2.37 2.40 2.04 1.78 1.55 1.33 1.23 1.21 0.96 0.73 0.65 0.71 0.74 0.76 0.75 0.70 0.62 0.55
0.10 0.13 0.20 0.34 0.52 0.78 0.99 1.24 1.60 1.86 1.98 2.14 2.08 2.05 2.06 2.11 2.13 2.16 2.21 2.34 2.31 2.25 2.24 2.45 2.47 2.51 2.42 2.35 2.18 2.00 1.84 1.53 1.15 1.15 1.10 0.89 0.76 0.67 0.73 0.80 0.80 0.76 0.68
0.18 0.24 0.33 0.49 0.64 0.85 1.02 1.22 1.41 1.67 1.82 1.97 2.07 2.01 2.00 2.04 2.14 2.04 1.97 2.09 2.13 2.14 2.15 2.32 2.46 2.54 2.49 2.52 2.40 2.12 2.01 1.83 1.46 1.38 1.23 1.08 1.00 0.80 0.73 0.74 0.75 0.74 0.74